Xianyang, China
Current Conditions -  °F | °C
As of 8:00 PM on Monday 24 Nov 2014 (Local Time) from ZLXY Reporting Station
Light Rain Light Rain  
Wind Chill: 45°   Ceiling: 4000
Heat Index: 45°   Visibility: 0.87mi
Dew Point: 43°   Wind: 2mph
Humidity: 93%   Direction: NA
Pressure: 30.27"   Gusts: NA
Location:  34.37°N, 108.7°E
Report Text: ZLXY 241200Z VRB01MPS 1400 R23R/P2000 R23L/P2000 -RA BRFEW007SCT015 OVC040 07/06 Q1025 RERA NOSIG
Loading
Personal Weather Stations






























Interactive Weather Map New forecast layout! Learn more

10-Day Weather Forecast

Advertisements
Track Severe Weather on mobile